EXPRESS-AM44

Last updated on Sat Apr 13 2024 01:02:37 GMT+0100 (British Summer Time)

1 33595U 09007A 24103.37539576 -.00000097 00000+0 00000+0 0 9991 2 33595 1.4079 87.9421 0003805 288.2323 309.0182 1.00271832 44301
UTC large
Height (km)
Speed (km/s)
/
Latitude / Longitude
Inclination (degrees)
Orbital Period (minutes)
Azimuth
Elevation
Range (km)
Doppler Factor

Next 0 passes for location: London (51.5072 / 0.1276)

Sorry there are no passes over London.